Time,TemperatureF,DewpointF,PressureIn,WindDirection,WindDirectionDegrees,WindSpeedMPH,WindSpeedGustMPH,Humidity,HourlyPrecipIn,Conditions,Clouds,dailyrainin,SoftwareType,DateUTC
2013-06-01 00:07:00,64.2,60.6,28.83,SE,135,0.0,0.0,88,0.00,,,0.00,WUHU216HW,2013-06-01 05:07:00,
2013-06-01 00:12:00,64.0,60.8,28.82,SE,135,0.0,0.0,89,0.00,,,0.00,WUHU216HW,2013-06-01 05:12:00,
2013-06-01 00:17:00,64.0,60.8,28.82,SE,135,0.0,0.0,89,0.00,,,0.00,WUHU216HW,2013-06-01 05:17:00,
2013-06-01 00:23:00,63.8,60.6,28.81,SE,135,0.0,0.0,89,0.00,,,0.00,WUHU216HW,2013-06-01 05:23:00,
2013-06-01 00:28:00,63.6,60.4,28.81,SE,135,0.0,0.0,89,0.00,,,0.00,WUHU216HW,2013-06-01 05:28:00,
2013-06-01 00:33:00,63.5,60.2,28.81,SE,135,0.0,0.0,89,0.00,,,0.00,WUHU216HW,2013-06-01 05:33:00,
2013-06-01 00:38:00,63.3,60.0,28.81,SE,135,0.0,0.0,89,0.00,,,0.00,WUHU216HW,2013-06-01 05:38:00,
2013-06-01 00:43:00,63.3,60.0,28.81,SE,135,0.0,0.0,89,0.00,,,0.00,WUHU216HW,2013-06-01 05:43:00,
2013-06-01 00:48:00,63.1,59.9,28.81,SE,135,0.0,0.0,89,0.00,,,0.00,WUHU216HW,2013-06-01 05:48:00,
2013-06-01 00:53:00,63.1,59.9,28.81,SE,135,0.0,0.0,89,0.00,,,0.00,WUHU216HW,2013-06-01 05:53:00,
2013-06-01 00:58:00,62.9,60.0,28.81,SE,135,0.0,0.0,90,0.00,,,0.00,WUHU216HW,2013-06-01 05:58:00,
2013-06-01 01:03:00,62.7,59.9,28.81,SE,135,0.0,0.0,90,0.00,,,0.00,WUHU216HW,2013-06-01 06:03:00,
2013-06-01 01:08:00,62.6,59.7,28.81,SE,135,0.0,0.0,90,0.00,,,0.00,WUHU216HW,2013-06-01 06:08:00,
2013-06-01 01:13:00,62.4,59.5,28.80,SE,135,0.0,0.0,90,0.00,,,0.00,WUHU216HW,2013-06-01 06:13:00,
2013-06-01 01:18:00,62.2,59.3,28.81,SE,135,0.0,0.0,90,0.00,,,0.00,WUHU216HW,2013-06-01 06:18:00,
2013-06-01 01:23:00,62.2,59.3,28.81,SE,135,0.0,0.0,90,0.00,,,0.00,WUHU216HW,2013-06-01 06:23:00,
2013-06-01 01:29:00,62.0,59.1,28.80,SE,135,0.0,0.0,90,0.00,,,0.00,WUHU216HW,2013-06-01 06:29:00,
2013-06-01 01:34:00,62.0,59.1,28.79,SE,135,0.0,0.0,90,0.00,,,0.00,WUHU216HW,2013-06-01 06:34:00,
2013-06-01 01:39:00,61.8,59.0,28.79,SE,135,0.0,0.0,90,0.00,,,0.00,WUHU216HW,2013-06-01 06:39:00,
2013-06-01 01:44:00,61.8,59.0,28.78,SE,135,0.0,0.0,90,0.00,,,0.00,WUHU216HW,2013-06-01 06:44:00,
2013-06-01 01:49:00,61.8,59.0,28.78,SE,135,0.0,0.0,90,0.00,,,0.00,WUHU216HW,2013-06-01 06:49:00,
2013-06-01 01:54:00,61.8,59.2,28.79,SE,135,0.0,0.0,91,0.00,,,0.00,WUHU216HW,2013-06-01 06:54:00,
2013-06-01 01:59:00,61.7,59.1,28.79,SE,135,0.0,0.0,91,0.00,,,0.00,WUHU216HW,2013-06-01 06:59:00,
2013-06-01 02:04:00,61.5,58.9,28.79,SE,135,0.0,0.0,91,0.00,,,0.00,WUHU216HW,2013-06-01 07:04:00,
2013-06-01 02:09:00,61.5,58.9,28.80,SE,135,0.0,0.0,91,0.00,,,0.00,WUHU216HW,2013-06-01 07:09:00,
2013-06-01 02:14:00,61.5,58.9,28.80,SE,135,0.0,0.0,91,0.00,,,0.00,WUHU216HW,2013-06-01 07:14:00,
2013-06-01 02:19:00,61.5,58.9,28.80,SE,135,0.0,0.0,91,0.00,,,0.00,WUHU216HW,2013-06-01 07:19:00,
2013-06-01 02:24:00,61.5,58.9,28.79,SE,135,0.0,0.0,91,0.00,,,0.00,WUHU216HW,2013-06-01 07:24:00,
2013-06-01 02:29:00,61.7,59.1,28.78,SE,135,0.0,0.0,91,0.00,,,0.00,WUHU216HW,2013-06-01 07:29:00,
2013-06-01 02:34:00,61.5,58.9,28.78,SE,135,0.0,0.0,91,0.00,,,0.00,WUHU216HW,2013-06-01 07:34:00,
2013-06-01 02:39:00,61.7,59.1,28.78,SE,135,0.0,0.0,91,0.00,,,0.00,WUHU216HW,2013-06-01 07:39:00,
2013-06-01 02:44:00,61.7,59.1,28.76,SE,135,0.0,0.0,91,0.00,,,0.00,WUHU216HW,2013-06-01 07:44:00,
2013-06-01 02:49:00,61.7,59.1,28.78,SE,135,0.0,0.0,91,0.00,,,0.00,WUHU216HW,2013-06-01 07:49:00,
2013-06-01 02:54:00,61.7,59.1,28.78,SE,135,0.0,0.0,91,0.00,,,0.00,WUHU216HW,2013-06-01 07:54:00,
2013-06-01 02:59:00,61.7,59.1,28.79,SE,135,0.0,0.0,91,0.00,,,0.00,WUHU216HW,2013-06-01 07:59:00,
2013-06-01 03:04:00,61.5,58.9,28.78,SE,135,0.0,0.0,91,0.00,,,0.00,WUHU216HW,2013-06-01 08:04:00,
2013-06-01 03:09:00,61.7,59.1,28.77,SE,135,0.0,0.0,91,0.00,,,0.00,WUHU216HW,2013-06-01 08:09:00,
2013-06-01 03:14:00,61.8,59.2,28.77,SE,135,0.0,0.0,91,0.00,,,0.00,WUHU216HW,2013-06-01 08:14:00,
2013-06-01 03:19:00,62.2,59.6,28.78,SE,135,0.0,0.0,91,0.00,,,0.00,WUHU216HW,2013-06-01 08:19:00,
2013-06-01 03:24:00,62.2,59.6,28.78,SE,135,0.0,0.0,91,0.00,,,0.00,WUHU216HW,2013-06-01 08:24:00,
2013-06-01 03:29:00,62.2,59.6,28.78,SE,135,0.0,0.0,91,0.00,,,0.00,WUHU216HW,2013-06-01 08:29:00,
2013-06-01 03:34:00,62.2,59.6,28.79,SE,135,0.0,0.0,91,0.00,,,0.00,WUHU216HW,2013-06-01 08:34:00,
2013-06-01 03:39:00,62.2,59.9,28.80,SE,135,0.0,0.0,92,0.00,,,0.00,WUHU216HW,2013-06-01 08:39:00,
2013-06-01 03:44:00,62.4,60.1,28.80,SE,135,0.0,0.0,92,0.00,,,0.00,WUHU216HW,2013-06-01 08:44:00,
2013-06-01 03:49:00,62.7,60.4,28.79,SE,135,0.0,0.0,92,0.00,,,0.00,WUHU216HW,2013-06-01 08:49:00,
2013-06-01 03:54:00,63.1,60.8,28.79,ENE,68,0.0,0.0,92,0.00,,,0.00,WUHU216HW,2013-06-01 08:54:00,
2013-06-01 03:59:00,63.3,61.0,28.80,ENE,68,0.0,0.0,92,0.00,,,0.00,WUHU216HW,2013-06-01 08:59:00,
2013-06-01 04:04:00,63.3,61.0,28.81,ENE,68,0.0,0.0,92,0.00,,,0.00,WUHU216HW,2013-06-01 09:04:00,
2013-06-01 04:10:00,63.5,61.1,28.81,ENE,68,0.0,0.0,92,0.00,,,0.00,WUHU216HW,2013-06-01 09:10:00,
2013-06-01 04:15:00,63.6,61.3,28.81,ENE,68,0.0,0.0,92,0.00,,,0.00,WUHU216HW,2013-06-01 09:15:00,
2013-06-01 04:20:00,63.6,61.3,28.81,ENE,68,0.0,0.0,92,0.00,,,0.00,WUHU216HW,2013-06-01 09:20:00,
2013-06-01 04:25:00,63.6,61.3,28.81,ENE,68,0.0,0.0,92,0.00,,,0.00,WUHU216HW,2013-06-01 09:25:00,
2013-06-01 04:30:00,63.6,61.3,28.81,ENE,68,0.0,0.0,92,0.00,,,0.00,WUHU216HW,2013-06-01 09:30:00,
2013-06-01 04:35:00,63.6,61.3,28.81,ENE,68,0.0,0.0,92,0.00,,,0.00,WUHU216HW,2013-06-01 09:35:00,
2013-06-01 04:40:00,64.0,61.7,28.81,ENE,68,0.0,0.0,92,0.00,,,0.00,WUHU216HW,2013-06-01 09:40:00,
2013-06-01 04:45:00,64.0,61.7,28.80,ENE,68,0.0,0.0,92,0.00,,,0.00,WUHU216HW,2013-06-01 09:45:00,
2013-06-01 04:50:00,63.8,61.5,28.80,ENE,68,0.0,0.0,92,0.00,,,0.00,WUHU216HW,2013-06-01 09:50:00,
2013-06-01 04:55:00,63.6,61.3,28.80,ENE,68,0.0,0.0,92,0.00,,,0.00,WUHU216HW,2013-06-01 09:55:00,
2013-06-01 05:00:00,63.5,61.1,28.79,ENE,68,0.0,0.0,92,0.00,,,0.00,WUHU216HW,2013-06-01 10:00:00,
2013-06-01 05:05:00,63.5,61.1,28.78,ENE,68,0.0,0.0,92,0.00,,,0.00,WUHU216HW,2013-06-01 10:05:00,
2013-06-01 05:10:00,63.3,61.0,28.78,ENE,68,0.0,0.0,92,0.00,,,0.00,WUHU216HW,2013-06-01 10:10:00,
2013-06-01 05:15:00,63.3,61.0,28.79,ENE,68,0.0,0.0,92,0.00,,,0.00,WUHU216HW,2013-06-01 10:15:00,
2013-06-01 05:20:00,63.1,60.8,28.80,ENE,68,0.0,0.0,92,0.00,,,0.00,WUHU216HW,2013-06-01 10:20:00,
2013-06-01 05:25:00,63.1,60.8,28.81,ENE,68,0.0,0.0,92,0.00,,,0.00,WUHU216HW,2013-06-01 10:25:00,
2013-06-01 05:30:00,62.9,60.6,28.81,ENE,68,0.0,0.0,92,0.00,,,0.00,WUHU216HW,2013-06-01 10:30:00,
2013-06-01 05:35:00,62.4,60.1,28.81,ENE,68,0.0,0.0,92,0.00,,,0.00,WUHU216HW,2013-06-01 10:35:00,
2013-06-01 05:40:00,62.4,60.1,28.80,ENE,68,0.0,0.0,92,0.00,,,0.00,WUHU216HW,2013-06-01 10:40:00,
2013-06-01 05:45:00,62.2,59.9,28.81,ENE,68,0.0,0.0,92,0.00,,,0.00,WUHU216HW,2013-06-01 10:45:00,
2013-06-01 05:50:00,62.0,59.7,28.81,ENE,68,0.0,0.0,92,0.00,,,0.00,WUHU216HW,2013-06-01 10:50:00,
2013-06-01 05:55:00,61.8,59.5,28.81,ENE,68,0.0,0.0,92,0.00,,,0.00,WUHU216HW,2013-06-01 10:55:00,
2013-06-01 06:00:00,61.7,59.3,28.81,ENE,68,0.0,0.0,92,0.00,,,0.00,WUHU216HW,2013-06-01 11:00:00,
2013-06-01 06:05:00,61.3,59.0,28.81,ENE,68,0.0,0.0,92,0.00,,,0.00,WUHU216HW,2013-06-01 11:05:00,
2013-06-01 06:10:00,61.1,58.8,28.81,ENE,68,0.0,0.0,92,0.00,,,0.00,WUHU216HW,2013-06-01 11:10:00,
2013-06-01 06:15:00,60.9,58.6,28.82,ENE,68,0.0,0.0,92,0.00,,,0.00,WUHU216HW,2013-06-01 11:15:00,
2013-06-01 06:20:00,60.4,58.1,28.82,ENE,68,0.0,0.0,92,0.00,,,0.00,WUHU216HW,2013-06-01 11:20:00,
2013-06-01 06:25:00,60.0,57.4,28.82,ENE,68,0.0,0.0,91,0.00,,,0.00,WUHU216HW,2013-06-01 11:25:00,
2013-06-01 06:30:00,59.9,57.3,28.82,ENE,68,0.0,0.0,91,0.00,,,0.00,WUHU216HW,2013-06-01 11:30:00,
2013-06-01 06:36:00,59.7,56.8,28.82,NW,315,4.4,4.4,90,0.00,,,0.00,WUHU216HW,2013-06-01 11:36:00,
2013-06-01 06:41:00,60.4,55.6,28.83,WSW,248,0.0,7.3,84,0.00,,,0.00,WUHU216HW,2013-06-01 11:41:00,
2013-06-01 06:46:00,60.4,55.2,28.83,WSW,248,0.0,7.3,83,0.00,,,0.00,WUHU216HW,2013-06-01 11:46:00,
2013-06-01 06:51:00,60.6,55.1,28.83,WSW,248,0.0,0.0,82,0.00,,,0.00,WUHU216HW,2013-06-01 11:51:00,
2013-06-01 06:56:00,60.4,54.9,28.83,WSW,248,0.0,0.0,82,0.00,,,0.00,WUHU216HW,2013-06-01 11:56:00,
2013-06-01 07:01:00,60.4,54.9,28.84,WSW,248,0.0,0.0,82,0.00,,,0.00,WUHU216HW,2013-06-01 12:01:00,
2013-06-01 07:06:00,60.4,54.9,28.85,WSW,248,0.0,0.0,82,0.00,,,0.00,WUHU216HW,2013-06-01 12:06:00,
2013-06-01 07:11:00,60.4,54.6,28.85,WSW,248,0.0,0.0,81,0.00,,,0.00,WUHU216HW,2013-06-01 12:11:00,
2013-06-01 07:16:00,60.4,54.3,28.85,West,270,0.0,0.0,80,0.00,,,0.00,WUHU216HW,2013-06-01 12:16:00,
2013-06-01 07:21:00,60.4,53.9,28.86,West,270,0.0,0.0,79,0.00,,,0.00,WUHU216HW,2013-06-01 12:21:00,
2013-06-01 07:26:00,60.6,53.7,28.86,West,270,0.0,0.0,78,0.00,,,0.00,WUHU216HW,2013-06-01 12:26:00,
2013-06-01 07:31:00,60.6,53.4,28.86,West,270,0.0,0.0,77,0.00,,,0.00,WUHU216HW,2013-06-01 12:31:00,
2013-06-01 07:36:00,60.6,53.0,28.86,West,270,0.0,0.0,76,0.00,,,0.00,WUHU216HW,2013-06-01 12:36:00,
2013-06-01 07:41:00,60.9,53.4,28.87,West,270,0.0,0.0,76,0.00,,,0.00,WUHU216HW,2013-06-01 12:41:00,
2013-06-01 07:46:00,60.9,53.4,28.87,West,270,0.0,0.0,76,0.00,,,0.00,WUHU216HW,2013-06-01 12:46:00,
2013-06-01 07:51:00,61.3,54.0,28.87,West,270,0.0,0.0,77,0.00,,,0.00,WUHU216HW,2013-06-01 12:51:00,
2013-06-01 07:57:00,61.5,53.5,28.87,West,270,0.0,0.0,75,0.00,,,0.00,WUHU216HW,2013-06-01 12:57:00,
2013-06-01 08:02:00,61.5,52.8,28.87,WNW,293,0.0,0.0,73,0.00,,,0.00,WUHU216HW,2013-06-01 13:02:00,
2013-06-01 08:07:00,61.7,52.9,28.87,West,270,0.0,0.0,73,0.00,,,0.00,WUHU216HW,2013-06-01 13:07:00,
2013-06-01 08:12:00,61.8,53.1,28.86,West,270,0.0,0.0,73,0.00,,,0.00,WUHU216HW,2013-06-01 13:12:00,
2013-06-01 08:17:00,62.2,53.4,28.87,West,270,0.0,0.0,73,0.00,,,0.00,WUHU216HW,2013-06-01 13:17:00,
2013-06-01 08:22:00,62.6,54.1,28.87,West,270,0.0,0.0,74,0.00,,,0.00,WUHU216HW,2013-06-01 13:22:00,
2013-06-01 08:27:00,62.7,53.9,28.87,West,270,0.0,0.0,73,0.00,,,0.00,WUHU216HW,2013-06-01 13:27:00,
2013-06-01 08:32:00,62.9,53.7,28.88,West,270,0.0,0.0,72,0.00,,,0.00,WUHU216HW,2013-06-01 13:32:00,
2013-06-01 08:37:00,63.6,54.1,28.88,West,270,0.0,0.0,71,0.00,,,0.00,WUHU216HW,2013-06-01 13:37:00,
2013-06-01 08:42:00,64.0,53.7,28.89,NW,315,0.0,3.1,69,0.00,,,0.00,WUHU216HW,2013-06-01 13:42:00,
2013-06-01 08:47:00,64.0,53.7,28.89,WNW,293,1.5,3.1,69,0.00,,,0.00,WUHU216HW,2013-06-01 13:47:00,
2013-06-01 08:52:00,64.5,53.7,28.88,West,270,0.0,1.5,68,0.00,,,0.00,WUHU216HW,2013-06-01 13:52:00,
2013-06-01 08:57:00,64.9,54.1,28.88,West,270,0.0,1.5,68,0.00,,,0.00,WUHU216HW,2013-06-01 13:57:00,
2013-06-01 09:02:00,65.4,54.4,28.88,West,270,0.0,1.1,68,0.00,,,0.00,WUHU216HW,2013-06-01 14:02:00,
2013-06-01 09:07:00,66.0,53.8,28.88,ENE,68,0.0,1.1,65,0.00,,,0.00,WUHU216HW,2013-06-01 14:07:00,
2013-06-01 09:12:00,66.3,54.6,28.88,SW,225,1.1,1.1,66,0.00,,,0.00,WUHU216HW,2013-06-01 14:12:00,
2013-06-01 09:17:00,66.9,54.7,28.88,WSW,248,0.0,1.1,65,0.00,,,0.00,WUHU216HW,2013-06-01 14:17:00,
2013-06-01 09:22:00,67.8,55.1,28.88,NNW,338,0.0,1.1,64,0.00,,,0.00,WUHU216HW,2013-06-01 14:22:00,
2013-06-01 09:28:00,68.0,54.8,28.89,NNE,23,0.0,3.1,63,0.00,,,0.00,WUHU216HW,2013-06-01 14:28:00,
2013-06-01 09:33:00,68.5,54.9,28.89,West,270,1.7,3.1,62,0.00,,,0.00,WUHU216HW,2013-06-01 14:33:00,
2013-06-01 09:38:00,68.7,55.1,28.89,West,270,0.0,1.7,62,0.00,,,0.00,WUHU216HW,2013-06-01 14:38:00,
2013-06-01 09:43:00,69.0,55.0,28.89,WNW,293,1.5,1.7,61,0.00,,,0.00,WUHU216HW,2013-06-01 14:43:00,
2013-06-01 09:48:00,69.4,55.0,28.89,WNW,293,2.0,2.0,60,0.00,,,0.00,WUHU216HW,2013-06-01 14:48:00,
2013-06-01 09:53:00,69.6,55.2,28.89,WNW,293,2.0,2.0,60,0.00,,,0.00,WUHU216HW,2013-06-01 14:53:00,
2013-06-01 09:58:00,70.3,55.3,28.88,NW,315,0.0,2.0,59,0.00,,,0.00,WUHU216HW,2013-06-01 14:58:00,
2013-06-01 10:03:00,70.3,54.3,28.88,NW,315,0.0,2.0,57,0.00,,,0.00,WUHU216HW,2013-06-01 15:03:00,
2013-06-01 10:08:00,70.3,54.8,28.88,North,0,5.8,5.8,58,0.00,,,0.00,WUHU216HW,2013-06-01 15:08:00,
2013-06-01 10:13:00,70.5,54.0,28.88,NNW,338,7.8,7.8,56,0.00,,,0.00,WUHU216HW,2013-06-01 15:13:00,
2013-06-01 10:19:00,69.9,53.5,28.88,NNW,338,10.5,10.5,56,0.00,,,0.00,WUHU216HW,2013-06-01 15:19:00,
2013-06-01 10:24:00,69.6,53.2,28.88,NW,315,3.8,10.5,56,0.00,,,0.00,WUHU216HW,2013-06-01 15:24:00,
2013-06-01 10:29:00,69.4,53.0,28.88,NW,315,13.4,13.4,56,0.00,,,0.00,WUHU216HW,2013-06-01 15:29:00,
2013-06-01 10:34:00,69.2,53.3,28.88,NNW,338,4.9,13.4,57,0.00,,,0.00,WUHU216HW,2013-06-01 15:34:00,
2013-06-01 10:39:00,70.1,54.7,28.88,West,270,0.0,13.4,58,0.00,,,0.00,WUHU216HW,2013-06-01 15:39:00,
2013-06-01 10:44:00,70.7,55.2,28.89,SSW,203,3.1,5.3,58,0.00,,,0.00,WUHU216HW,2013-06-01 15:44:00,
2013-06-01 10:49:00,70.8,54.3,28.89,West,270,0.0,5.8,56,0.00,,,0.00,WUHU216HW,2013-06-01 15:49:00,
2013-06-01 10:54:00,71.2,54.6,28.89,NNW,338,12.9,12.9,56,0.00,,,0.00,WUHU216HW,2013-06-01 15:54:00,
2013-06-01 10:59:00,71.2,55.1,28.89,ESE,113,0.0,12.9,57,0.00,,,0.00,WUHU216HW,2013-06-01 15:59:00,
2013-06-01 11:04:00,71.4,54.8,28.89,NW,315,0.0,12.9,56,0.00,,,0.00,WUHU216HW,2013-06-01 16:04:00,
2013-06-01 11:09:00,72.1,56.4,28.90,WNW,293,0.0,6.0,58,0.00,,,0.00,WUHU216HW,2013-06-01 16:09:00,
2013-06-01 11:14:00,72.6,55.9,28.89,NW,315,0.0,3.1,56,0.00,,,0.00,WUHU216HW,2013-06-01 16:14:00,
2013-06-01 11:19:00,73.5,55.4,28.90,West,270,5.3,5.3,54,0.00,,,0.00,WUHU216HW,2013-06-01 16:19:00,
2013-06-01 11:24:00,73.9,56.1,28.90,West,270,0.0,5.3,54,0.00,,,0.00,WUHU216HW,2013-06-01 16:24:00,
2013-06-01 11:29:00,74.8,55.5,28.90,NW,315,6.7,6.7,51,0.00,,,0.00,WUHU216HW,2013-06-01 16:29:00,
2013-06-01 11:34:00,75.5,56.5,28.91,West,270,6.2,8.0,51,0.00,,,0.00,WUHU216HW,2013-06-01 16:34:00,
2013-06-01 11:39:00,76.4,57.0,28.91,NNW,338,6.4,8.0,51,0.00,,,0.00,WUHU216HW,2013-06-01 16:39:00,
2013-06-01 11:44:00,76.8,57.3,28.91,NW,315,0.0,6.4,51,0.00,,,0.00,WUHU216HW,2013-06-01 16:44:00,
2013-06-01 11:49:00,78.2,57.5,28.91,WNW,293,0.0,6.4,49,0.00,,,0.00,WUHU216HW,2013-06-01 16:49:00,
2013-06-01 11:54:00,79.8,57.7,28.91,NW,315,0.0,3.1,47,0.00,,,0.00,WUHU216HW,2013-06-01 16:54:00,
2013-06-01 11:59:00,80.4,58.2,28.91,SSE,158,6.0,6.0,47,0.00,,,0.00,WUHU216HW,2013-06-01 16:59:00,
2013-06-01 12:05:00,80.4,57.3,28.91,NW,315,4.0,6.0,46,0.00,,,0.00,WUHU216HW,2013-06-01 17:05:00,
2013-06-01 12:10:00,79.7,57.6,28.91,WNW,293,0.0,6.7,47,0.00,,,0.00,WUHU216HW,2013-06-01 17:10:00,
2013-06-01 12:15:00,79.1,57.1,28.92,SE,135,0.0,6.7,47,0.00,,,0.00,WUHU216HW,2013-06-01 17:15:00,
2013-06-01 12:20:00,79.8,57.7,28.92,SE,135,0.0,0.8,47,0.00,,,0.00,WUHU216HW,2013-06-01 17:20:00,
2013-06-01 12:25:00,80.4,57.0,28.92,WNW,293,11.8,11.8,45,0.00,,,0.00,WUHU216HW,2013-06-01 17:25:00,
2013-06-01 12:30:00,79.5,57.4,28.92,NW,315,4.9,11.8,47,0.00,,,0.00,WUHU216HW,2013-06-01 17:30:00,
2013-06-01 12:35:00,79.1,57.1,28.92,WNW,293,0.0,8.7,47,0.00,,,0.00,WUHU216HW,2013-06-01 17:35:00,
2013-06-01 12:40:00,78.6,56.0,28.93,South,180,0.0,7.8,46,0.00,,,0.00,WUHU216HW,2013-06-01 17:40:00,
2013-06-01 12:45:00,77.1,55.3,28.93,NNW,338,0.0,7.8,47,0.00,,,0.00,WUHU216HW,2013-06-01 17:45:00,
2013-06-01 12:50:00,75.9,55.4,28.93,NW,315,2.4,2.4,49,0.00,,,0.00,WUHU216HW,2013-06-01 17:50:00,
2013-06-01 12:55:00,74.6,54.8,28.93,NNW,338,6.7,6.7,50,0.00,,,0.00,WUHU216HW,2013-06-01 17:55:00,
2013-06-01 13:00:00,74.8,55.5,28.93,WSW,248,7.3,7.3,51,0.00,,,0.00,WUHU216HW,2013-06-01 18:00:00,
2013-06-01 13:05:00,74.3,55.0,28.93,NNW,338,0.0,8.7,51,0.00,,,0.00,WUHU216HW,2013-06-01 18:05:00,
2013-06-01 13:10:00,73.5,55.2,28.93,NW,315,4.9,8.7,53,0.00,,,0.00,WUHU216HW,2013-06-01 18:10:00,
2013-06-01 13:15:00,73.2,54.9,28.93,West,270,5.1,8.9,53,0.00,,,0.00,WUHU216HW,2013-06-01 18:15:00,
2013-06-01 13:20:00,73.4,56.1,28.93,NW,315,4.2,8.9,55,0.00,,,0.00,WUHU216HW,2013-06-01 18:20:00,
2013-06-01 13:25:00,73.7,55.9,28.93,NE,45,4.2,8.5,54,0.00,,,0.00,WUHU216HW,2013-06-01 18:25:00,
2013-06-01 13:30:00,74.3,56.5,28.93,WNW,293,0.0,8.5,54,0.00,,,0.00,WUHU216HW,2013-06-01 18:30:00,
2013-06-01 13:36:00,74.1,56.3,28.93,North,0,0.0,0.0,54,0.00,,,0.00,WUHU216HW,2013-06-01 18:36:00,
2013-06-01 13:41:00,74.3,56.5,28.93,North,0,0.0,0.0,54,0.00,,,0.00,WUHU216HW,2013-06-01 18:41:00,
2013-06-01 13:46:00,73.9,56.1,28.94,SW,225,0.4,0.4,54,0.00,,,0.00,WUHU216HW,2013-06-01 18:46:00,
2013-06-01 13:51:00,73.5,56.8,28.94,SE,135,6.2,6.2,56,0.00,,,0.00,WUHU216HW,2013-06-01 18:51:00,
2013-06-01 13:56:00,73.5,56.3,28.94,North,0,5.8,6.2,55,0.00,,,0.00,WUHU216HW,2013-06-01 18:56:00,
2013-06-01 14:01:00,73.7,56.9,28.94,NW,315,0.0,6.2,56,0.00,,,0.00,WUHU216HW,2013-06-01 19:01:00,
2013-06-01 14:06:00,74.3,57.5,28.94,WNW,293,0.0,5.8,56,0.00,,,0.00,WUHU216HW,2013-06-01 19:06:00,
2013-06-01 14:11:00,74.6,57.3,28.94,NW,315,10.2,10.2,55,0.00,,,0.00,WUHU216HW,2013-06-01 19:11:00,
2013-06-01 14:16:00,73.5,56.3,28.94,NNW,338,0.0,10.2,55,0.00,,,0.00,WUHU216HW,2013-06-01 19:16:00,
2013-06-01 14:21:00,72.5,55.8,28.95,NW,315,6.0,10.2,56,0.00,,,0.00,WUHU216HW,2013-06-01 19:21:00,
2013-06-01 14:26:00,71.7,56.1,28.95,NNW,338,8.7,8.7,58,0.00,,,0.00,WUHU216HW,2013-06-01 19:26:00,
2013-06-01 14:31:00,71.4,55.3,28.95,NNW,338,3.1,8.7,57,0.00,,,0.00,WUHU216HW,2013-06-01 19:31:00,
2013-06-01 14:36:00,70.3,55.8,28.95,NNW,338,0.0,8.7,60,0.00,,,0.00,WUHU216HW,2013-06-01 19:36:00,
2013-06-01 14:41:00,70.8,56.7,28.95,NNW,338,4.2,6.2,61,0.00,,,0.00,WUHU216HW,2013-06-01 19:41:00,
2013-06-01 14:46:00,71.2,56.1,28.95,WNW,293,0.0,6.2,59,0.00,,,0.00,WUHU216HW,2013-06-01 19:46:00,
2013-06-01 14:51:00,71.9,56.8,28.95,NNW,338,0.0,4.2,59,0.00,,,0.00,WUHU216HW,2013-06-01 19:51:00,
2013-06-01 14:56:00,72.1,56.4,28.96,NW,315,0.0,8.2,58,0.00,,,0.00,WUHU216HW,2013-06-01 19:56:00,
2013-06-01 15:01:00,71.7,56.6,28.96,NNW,338,0.0,8.2,59,0.00,,,0.00,WUHU216HW,2013-06-01 20:01:00,
2013-06-01 15:06:00,70.3,55.8,28.96,West,270,0.0,2.4,60,0.00,,,0.00,WUHU216HW,2013-06-01 20:06:00,
2013-06-01 15:11:00,69.4,55.4,28.96,NW,315,4.4,4.4,61,0.00,,,0.00,WUHU216HW,2013-06-01 20:11:00,
2013-06-01 15:16:00,68.9,55.3,28.96,West,270,0.0,4.4,62,0.00,,,0.00,WUHU216HW,2013-06-01 20:16:00,
2013-06-01 15:21:00,69.0,56.3,28.96,WNW,293,0.0,4.4,64,0.00,,,0.00,WUHU216HW,2013-06-01 20:21:00,
2013-06-01 15:26:00,69.8,56.6,28.96,WNW,293,0.0,0.0,63,0.00,,,0.00,WUHU216HW,2013-06-01 20:26:00,
2013-06-01 15:31:00,70.3,57.1,28.96,WNW,293,0.0,0.0,63,0.00,,,0.00,WUHU216HW,2013-06-01 20:31:00,
2013-06-01 15:36:00,70.3,56.7,28.96,NNW,338,0.0,0.0,62,0.00,,,0.00,WUHU216HW,2013-06-01 20:36:00,
2013-06-01 15:41:00,70.1,56.5,28.96,South,180,0.0,0.0,62,0.00,,,0.00,WUHU216HW,2013-06-01 20:41:00,
2013-06-01 15:46:00,69.9,56.3,28.97,NNW,338,0.0,0.0,62,0.00,,,0.00,WUHU216HW,2013-06-01 20:46:00,
2013-06-01 15:51:00,69.6,56.0,28.97,NW,315,0.0,5.5,62,0.00,,,0.00,WUHU216HW,2013-06-01 20:51:00,
2013-06-01 15:56:00,69.4,56.2,28.97,NW,315,0.0,5.5,63,0.00,,,0.00,WUHU216HW,2013-06-01 20:56:00,
2013-06-01 16:01:00,69.4,56.2,28.97,WSW,248,0.0,4.0,63,0.00,,,0.00,WUHU216HW,2013-06-01 21:01:00,
2013-06-01 16:06:00,70.3,56.7,28.96,NNW,338,0.0,4.0,62,0.00,,,0.00,WUHU216HW,2013-06-01 21:06:00,
2013-06-01 16:11:00,71.2,57.1,28.96,SSE,158,0.0,0.0,61,0.00,,,0.00,WUHU216HW,2013-06-01 21:11:00,
2013-06-01 16:16:00,72.1,57.9,28.96,SE,135,0.0,0.0,61,0.00,,,0.00,WUHU216HW,2013-06-01 21:16:00,
2013-06-01 16:21:00,72.8,58.1,28.96,SSE,158,0.0,0.0,60,0.00,,,0.00,WUHU216HW,2013-06-01 21:21:00,
2013-06-01 16:26:00,72.6,57.4,28.96,SE,135,0.0,0.0,59,0.00,,,0.00,WUHU216HW,2013-06-01 21:26:00,
2013-06-01 16:31:00,72.6,57.4,28.97,SW,225,0.0,0.0,59,0.00,,,0.00,WUHU216HW,2013-06-01 21:31:00,
2013-06-01 16:36:00,72.1,57.5,28.97,NNW,338,0.0,0.0,60,0.00,,,0.00,WUHU216HW,2013-06-01 21:36:00,
2013-06-01 16:41:00,72.3,58.1,28.97,NNE,23,7.1,7.1,61,0.00,,,0.00,WUHU216HW,2013-06-01 21:41:00,
2013-06-01 16:46:00,72.3,57.1,28.97,WSW,248,0.0,7.1,59,0.00,,,0.00,WUHU216HW,2013-06-01 21:46:00,
2013-06-01 16:51:00,73.0,57.8,28.97,WSW,248,0.0,0.0,59,0.00,,,0.00,WUHU216HW,2013-06-01 21:51:00,
2013-06-01 16:56:00,73.2,57.9,28.97,SE,135,0.0,0.0,59,0.00,,,0.00,WUHU216HW,2013-06-01 21:56:00,
2013-06-01 17:02:00,73.0,57.8,28.97,WSW,248,0.0,0.0,59,0.00,,,0.00,WUHU216HW,2013-06-01 22:02:00,
2013-06-01 17:07:00,73.2,58.4,28.97,WNW,293,0.0,0.0,60,0.00,,,0.00,WUHU216HW,2013-06-01 22:07:00,
2013-06-01 17:12:00,72.6,57.4,28.97,NW,315,0.0,4.9,59,0.00,,,0.00,WUHU216HW,2013-06-01 22:12:00,
2013-06-01 17:17:00,71.9,56.8,28.97,NW,315,0.0,4.9,59,0.00,,,0.00,WUHU216HW,2013-06-01 22:17:00,
2013-06-01 17:22:00,70.7,56.6,28.97,NNW,338,7.3,7.3,61,0.00,,,0.00,WUHU216HW,2013-06-01 22:22:00,
2013-06-01 17:27:00,70.3,56.7,28.97,NW,315,0.0,7.3,62,0.00,,,0.00,WUHU216HW,2013-06-01 22:27:00,
2013-06-01 17:32:00,70.3,57.1,28.98,NW,315,0.0,7.3,63,0.00,,,0.00,WUHU216HW,2013-06-01 22:32:00,
2013-06-01 17:37:00,70.3,57.1,28.98,WSW,248,0.0,0.0,63,0.00,,,0.00,WUHU216HW,2013-06-01 22:37:00,
2013-06-01 17:42:00,70.1,56.9,28.98,WSW,248,0.0,0.0,63,0.00,,,0.00,WUHU216HW,2013-06-01 22:42:00,
2013-06-01 17:47:00,69.9,56.8,28.98,West,270,0.0,0.0,63,0.00,,,0.00,WUHU216HW,2013-06-01 22:47:00,
2013-06-01 17:52:00,69.9,57.2,28.98,West,270,0.0,0.0,64,0.00,,,0.00,WUHU216HW,2013-06-01 22:52:00,
2013-06-01 17:57:00,69.6,56.8,28.98,West,270,0.0,0.0,64,0.00,,,0.00,WUHU216HW,2013-06-01 22:57:00,
2013-06-01 18:02:00,69.4,56.6,28.98,West,270,0.0,0.0,64,0.00,,,0.00,WUHU216HW,2013-06-01 23:02:00,
2013-06-01 18:07:00,68.7,56.4,28.98,West,270,0.0,0.0,65,0.00,,,0.00,WUHU216HW,2013-06-01 23:07:00,
2013-06-01 18:12:00,68.5,56.6,28.98,NNW,338,0.0,0.0,66,0.00,,,0.00,WUHU216HW,2013-06-01 23:12:00,
2013-06-01 18:17:00,68.1,56.3,28.98,NNW,338,5.5,5.5,66,0.00,,,0.00,WUHU216HW,2013-06-01 23:17:00,
2013-06-01 18:22:00,68.1,56.3,28.98,West,270,0.0,5.5,66,0.00,,,0.00,WUHU216HW,2013-06-01 23:22:00,
2013-06-01 18:27:00,68.3,56.9,28.98,West,270,0.0,0.0,67,0.00,,,0.00,WUHU216HW,2013-06-01 23:27:00,
2013-06-01 18:32:00,68.7,57.2,28.99,WNW,293,0.0,0.0,67,0.00,,,0.00,WUHU216HW,2013-06-01 23:32:00,
2013-06-01 18:37:00,69.0,57.2,28.99,West,270,0.0,0.0,66,0.00,,,0.00,WUHU216HW,2013-06-01 23:37:00,
2013-06-01 18:42:00,68.9,57.4,28.99,NNE,23,0.0,0.0,67,0.00,,,0.00,WUHU216HW,2013-06-01 23:42:00,
2013-06-01 18:47:00,68.7,56.8,28.99,NW,315,4.0,4.0,66,0.00,,,0.00,WUHU216HW,2013-06-01 23:47:00,
2013-06-01 18:52:00,68.5,56.6,28.99,NNW,338,4.2,4.2,66,0.00,,,0.00,WUHU216HW,2013-06-01 23:52:00,
2013-06-01 18:57:00,67.8,55.5,28.99,NW,315,0.0,6.4,65,0.00,,,0.00,WUHU216HW,2013-06-01 23:57:00,
2013-06-01 19:02:00,67.6,55.4,28.99,NW,315,0.0,6.9,65,0.00,,,0.00,WUHU216HW,2013-06-02 00:02:00,
2013-06-01 19:07:00,67.2,55.4,28.99,NW,315,0.0,6.9,66,0.00,,,0.00,WUHU216HW,2013-06-02 00:07:00,
2013-06-01 19:12:00,66.9,55.1,28.99,NW,315,4.4,4.4,66,0.00,,,0.00,WUHU216HW,2013-06-02 00:12:00,
2013-06-01 19:17:00,66.7,54.9,28.99,West,270,0.0,4.4,66,0.00,,,0.00,WUHU216HW,2013-06-02 00:17:00,
2013-06-01 19:22:00,66.3,55.0,29.00,WNW,293,4.6,4.6,67,0.00,,,0.00,WUHU216HW,2013-06-02 00:22:00,
2013-06-01 19:27:00,66.0,54.6,29.00,NW,315,0.0,5.8,67,0.00,,,0.00,WUHU216HW,2013-06-02 00:27:00,
2013-06-01 19:32:00,65.8,54.9,29.00,NW,315,0.0,5.8,68,0.00,,,0.00,WUHU216HW,2013-06-02 00:32:00,
2013-06-01 19:37:00,65.6,54.7,29.00,NW,315,0.0,0.0,68,0.00,,,0.00,WUHU216HW,2013-06-02 00:37:00,
2013-06-01 19:42:00,65.4,54.6,29.00,NW,315,0.0,0.0,68,0.00,,,0.00,WUHU216HW,2013-06-02 00:42:00,
2013-06-01 19:47:00,65.3,54.4,29.00,NW,315,0.0,0.0,68,0.00,,,0.00,WUHU216HW,2013-06-02 00:47:00,
2013-06-01 19:52:00,65.1,54.7,29.01,NW,315,0.0,0.0,69,0.00,,,0.00,WUHU216HW,2013-06-02 00:52:00,
2013-06-01 19:57:00,65.1,54.7,29.01,NW,315,0.0,0.0,69,0.00,,,0.00,WUHU216HW,2013-06-02 00:57:00,
2013-06-01 20:02:00,65.1,54.7,29.01,NW,315,0.0,0.0,69,0.00,,,0.00,WUHU216HW,2013-06-02 01:02:00,
2013-06-01 20:07:00,64.9,54.5,29.01,NW,315,1.7,3.1,69,0.00,,,0.00,WUHU216HW,2013-06-02 01:07:00,
2013-06-01 20:12:00,64.5,54.6,29.01,NW,315,0.0,3.1,70,0.00,,,0.00,WUHU216HW,2013-06-02 01:12:00,
2013-06-01 20:17:00,64.2,54.3,29.01,NW,315,0.0,2.0,70,0.00,,,0.00,WUHU216HW,2013-06-02 01:17:00,
2013-06-01 20:22:00,63.6,53.7,29.01,NW,315,0.0,0.0,70,0.00,,,0.00,WUHU216HW,2013-06-02 01:22:00,
2013-06-01 20:28:00,63.3,53.7,29.01,NW,315,0.0,0.0,71,0.00,,,0.00,WUHU216HW,2013-06-02 01:28:00,
2013-06-01 20:33:00,63.1,53.9,29.01,NW,315,0.0,0.0,72,0.00,,,0.00,WUHU216HW,2013-06-02 01:33:00,
2013-06-01 20:38:00,62.9,53.7,29.01,NW,315,0.0,0.0,72,0.00,,,0.00,WUHU216HW,2013-06-02 01:38:00,
2013-06-01 20:43:00,62.7,53.9,29.01,NW,315,0.0,0.0,73,0.00,,,0.00,WUHU216HW,2013-06-02 01:43:00,
2013-06-01 20:48:00,62.7,53.9,29.01,WNW,293,0.0,0.0,73,0.00,,,0.00,WUHU216HW,2013-06-02 01:48:00,
2013-06-01 20:53:00,62.9,54.1,29.01,WNW,293,0.0,0.0,73,0.00,,,0.00,WUHU216HW,2013-06-02 01:53:00,
2013-06-01 20:58:00,63.1,53.9,29.02,NW,315,0.0,7.8,72,0.00,,,0.00,WUHU216HW,2013-06-02 01:58:00,
2013-06-01 21:03:00,63.1,53.9,29.01,NNW,338,0.0,7.8,72,0.00,,,0.00,WUHU216HW,2013-06-02 02:03:00,
2013-06-01 21:08:00,63.3,54.1,29.01,NNW,338,0.0,5.1,72,0.00,,,0.00,WUHU216HW,2013-06-02 02:08:00,
2013-06-01 21:13:00,63.3,54.1,29.01,NNW,338,4.0,5.1,72,0.00,,,0.00,WUHU216HW,2013-06-02 02:13:00,
2013-06-01 21:18:00,63.1,53.9,29.01,NW,315,5.3,5.3,72,0.00,,,0.00,WUHU216HW,2013-06-02 02:18:00,
2013-06-01 21:23:00,63.1,53.9,29.01,NW,315,0.0,5.3,72,0.00,,,0.00,WUHU216HW,2013-06-02 02:23:00,
2013-06-01 21:28:00,63.1,53.9,29.01,NW,315,0.0,5.3,72,0.00,,,0.00,WUHU216HW,2013-06-02 02:28:00,
2013-06-01 21:33:00,62.7,53.7,29.01,NW,315,0.0,0.0,72,0.00,,,0.00,WUHU216HW,2013-06-02 02:33:00,
2013-06-01 21:38:00,62.4,53.6,29.01,NW,315,0.0,0.0,73,0.00,,,0.00,WUHU216HW,2013-06-02 02:38:00,
2013-06-01 21:43:00,62.2,53.4,29.01,NW,315,0.0,0.0,73,0.00,,,0.00,WUHU216HW,2013-06-02 02:43:00,
2013-06-01 21:48:00,61.8,53.3,29.02,NW,315,0.0,0.0,74,0.00,,,0.00,WUHU216HW,2013-06-02 02:48:00,
2013-06-01 21:53:00,61.5,53.1,29.02,NW,315,0.0,0.0,74,0.00,,,0.00,WUHU216HW,2013-06-02 02:53:00,
2013-06-01 21:58:00,61.1,52.8,29.02,NW,315,0.0,0.0,74,0.00,,,0.00,WUHU216HW,2013-06-02 02:58:00,
2013-06-01 22:04:00,60.6,52.7,29.02,NW,315,0.0,0.0,75,0.00,,,0.00,WUHU216HW,2013-06-02 03:04:00,
2013-06-01 22:09:00,60.0,52.1,29.02,NW,315,0.0,0.0,75,0.00,,,0.00,WUHU216HW,2013-06-02 03:09:00,
2013-06-01 22:14:00,59.7,52.1,29.03,NW,315,0.0,0.0,76,0.00,,,0.00,WUHU216HW,2013-06-02 03:14:00,
2013-06-01 22:19:00,59.1,51.9,29.03,NW,315,0.0,0.0,77,0.00,,,0.00,WUHU216HW,2013-06-02 03:19:00,
2013-06-01 22:24:00,58.8,51.6,29.03,NW,315,0.0,0.0,77,0.00,,,0.00,WUHU216HW,2013-06-02 03:24:00,
2013-06-01 22:29:00,58.8,51.9,29.03,NW,315,0.0,0.0,78,0.00,,,0.00,WUHU216HW,2013-06-02 03:29:00,
2013-06-01 22:34:00,58.8,52.3,29.03,NW,315,0.0,0.0,79,0.00,,,0.00,WUHU216HW,2013-06-02 03:34:00,
2013-06-01 22:39:00,58.6,52.1,29.03,NW,315,0.0,0.0,79,0.00,,,0.00,WUHU216HW,2013-06-02 03:39:00,
2013-06-01 22:44:00,58.2,52.1,29.03,NW,315,0.0,0.0,80,0.00,,,0.00,WUHU216HW,2013-06-02 03:44:00,
2013-06-01 22:49:00,58.4,52.6,29.03,NW,315,0.0,0.0,81,0.00,,,0.00,WUHU216HW,2013-06-02 03:49:00,
2013-06-01 22:54:00,58.4,52.6,29.03,NW,315,0.0,0.0,81,0.00,,,0.00,WUHU216HW,2013-06-02 03:54:00,
2013-06-01 22:59:00,58.4,52.6,29.04,NW,315,0.0,0.0,81,0.00,,,0.00,WUHU216HW,2013-06-02 03:59:00,
2013-06-01 23:01:00,58.4,52.6,29.04,NW,315,0.0,0.0,81,0.00,,,0.00,WUHU216HW,2013-06-02 04:01:00,
2013-06-01 23:02:00,58.4,52.6,29.04,NW,315,0.0,0.0,81,0.00,,,0.00,WUHU216HW,2013-06-02 04:02:00,
2013-06-01 23:07:00,58.6,52.8,29.03,NW,315,0.0,0.0,81,0.00,,,0.00,WUHU216HW,2013-06-02 04:07:00,
2013-06-01 23:12:00,58.6,52.8,29.03,NW,315,0.0,0.0,81,0.00,,,0.00,WUHU216HW,2013-06-02 04:12:00,
2013-06-01 23:17:00,58.6,52.8,29.03,NW,315,0.0,0.0,81,0.00,,,0.00,WUHU216HW,2013-06-02 04:17:00,
2013-06-01 23:22:00,58.6,52.8,29.04,NW,315,0.0,0.0,81,0.00,,,0.00,WUHU216HW,2013-06-02 04:22:00,
2013-06-01 23:27:00,58.4,52.6,29.04,NW,315,0.0,0.0,81,0.00,,,0.00,WUHU216HW,2013-06-02 04:27:00,
2013-06-01 23:32:00,58.2,52.4,29.04,NW,315,0.0,0.0,81,0.00,,,0.00,WUHU216HW,2013-06-02 04:32:00,
2013-06-01 23:37:00,58.6,53.1,29.04,NW,315,0.0,0.0,82,0.00,,,0.00,WUHU216HW,2013-06-02 04:37:00,
2013-06-01 23:43:00,58.8,53.0,29.04,NW,315,0.0,3.1,81,0.00,,,0.00,WUHU216HW,2013-06-02 04:43:00,
2013-06-01 23:48:00,59.0,52.8,29.04,NW,315,0.0,3.1,80,0.00,,,0.00,WUHU216HW,2013-06-02 04:48:00,
2013-06-01 23:53:00,59.5,53.4,29.03,NNW,338,5.5,6.2,80,0.00,,,0.00,WUHU216HW,2013-06-02 04:53:00,
2013-06-01 23:58:00,59.7,53.2,29.04,NW,315,3.3,7.6,79,0.00,,,0.00,WUHU216HW,2013-06-02 04:58:00,